Vorticity
9 5 10 3 6 3 -0 8 5 -1 -1 6 13 8 5 11 12 13 16 27 24 19 10 8 17 16 15 12 12 9 8 7 6 5 5 4 3 4 4 5 4 3 3 3
3 18 3 7 7 7 -1 13 6 7 11 6 21 25 -8 5 9 3 14 18 18 17 13 11 17 15 15 15 13 10 8 6 5 5 5 4 4 4 4 3 3 3 2 3
0 6 12 6 8 5 7 12 2 -0 4 18 7 36 2 -1 9 7 7 4 8 12 10 10 11 13 14 17 16 11 9 7 5 4 4 4 2 2 3 4 5 5 4 3
21 4 -4 10 8 9 12 4 -3 5 19 11 5 -0 13 -1 3 7 12 13 10 11 11 12 9 10 11 14 17 13 9 7 5 5 4 3 3 5 5 4 4 4 5 5
1 4 11 7 10 8 -1 -1 4 7 23 19 27 13 2 11 2 9 8 10 12 14 15 16 12 8 9 11 15 17 12 8 6 5 4 4 5 4 5 5 5 5 5 6
6 13 10 5 6 11 2 6 21 22 19 17 17 -4 21 10 2 8 9 7 -1 -10 5 14 10 9 8 9 12 13 18 14 8 6 4 3 3 4 5 5 6 6 4 4
3 16 18 5 17 7 3 14 17 13 13 2 3 14 -7 -1 5 10 5 -10 4 11 15 18 11 11 14 14 12 10 11 15 13 9 6 5 4 4 4 4 5 5 5 7
17 14 7 6 1 -7 3 22 -3 10 7 -1 -5 20 14 10 13 7 -11 2 13 12 13 14 10 5 3 4 6 8 10 13 20 18 9 5 4 5 5 7 6 6 6 1
4 15 2 1 5 5 9 3 9 -3 16 6 7 19 12 17 12 -9 -6 9 17 12 2 3 5 1 1 -0 -1 -3 4 10 9 11 10 7 6 7 7 6 5 1 -3 -3
11 16 20 12 13 7 10 4 4 15 5 8 20 15 -14 7 -6 -6 13 16 19 3 -8 14 8 0 1 2 2 7 10 9 12 13 12 9 5 3 2 3 5 4 4 16
2 20 -2 6 8 6 10 1 2 5 -5 5 2 22 12 5 -20 1 11 9 -1 -19 19 10 -10 -4 11 12 13 14 11 8 10 8 3 9 10 7 5 3 5 14 24 13
5 5 4 -1 -1 7 8 7 8 -9 27 -5 -3 11 2 15 33 36 22 -5 -1 10 -16 -14 48 33 19 12 10 10 8 8 5 3 4 8 11 14 15 17 15 13 9 10
-2 7 12 24 30 31 20 16 16 7 -4 3 -23 -18 -10 -11 2 -3 -16 18 -22 1 38 20 4 11 12 9 8 8 5 6 10 13 10 7 5 5 9 9 11 10 9 9
3 18 -13 -44 -44 -27 -13 -7 -4 0 -4 -13 -25 -20 -2 4 -3 12 -21 12 16 38 8 4 7 5 3 5 7 6 4 3 5 8 9 11 11 16 18 18 15 10 8 9
10 4 14 11 8 7 3 1 3 5 3 -11 -17 -11 -3 -7 3 23 26 21 11 -1 7 10 9 7 7 10 10 12 10 9 10 12 17 16 10 7 6 6 6 7 8 8
16 5 1 1 3 10 10 22 17 13 18 13 16 16 26 31 30 12 3 4 3 3 9 5 13 15 16 17 14 10 13 15 17 15 9 10 9 6 5 6 6 7 9 9
7 1 4 4 26 31 62 26 38 24 14 20 28 29 28 13 8 5 0 5 16 8 12 17 14 15 14 13 14 13 9 6 5 4 4 2 5 8 12 13 13 10 5 5
11 3 16 6 22 28 30 41 34 22 21 33 36 6 10 9 4 4 7 16 14 15 13 13 10 9 10 9 5 6 7 6 6 8 11 13 14 12 8 5 6 9 11 12
29 32 6 1 3 -35 -8 -10 -5 -9 9 4 5 11 5 -2 3 9 21 17 9 6 8 6 4 6 3 4 12 9 9 10 9 12 12 9 6 5 6 9 14 16 13 11
-8 24 8 -15 -2 -6 4 30 21 -19 19 15 18 11 -0 19 29 11 8 8 9 9 8 8 9 7 4 7 8 10 10 8 8 9 9 6 5 9 15 15 14 14 17 20
13 25 19 10 35 25 2 -7 23 20 9 19 5 10 9 5 9 9 8 7 6 3 5 5 4 6 8 9 8 2 9 7 11 8 5 4 9 15 15 15 18 20 21 18
1 13 2 18 11 29 20 18 8 10 4 -2 18 18 10 11 6 3 3 3 5 6 7 10 11 8 8 8 8 10 8 10 9 6 5 7 15 16 16 20 20 17 14 13
33 15 -35 -30 -33 -17 4 -2 10 -6 31 29 14 7 5 4 4 6 6 7 9 9 6 6 8 9 9 8 11 10 9 10 8 5 5 12 16 17 18 17 13 12 12 12
12 19 10 -1 9 -6 1 17 52 27 16 8 3 6 8 11 9 9 9 7 6 8 10 11 10 11 11 15 10 6 7 11 8 5 7 13 17 19 17 13 12 11 10 11
12 14 16 14 8 14 58 13 18 7 5 3 5 4 6 8 9 10 10 11 12 8 9 9 10 7 8 8 9 10 11 10 8 5 8 14 17 19 15 12 12 10 11 11
36 18 2 12 23 44 13 12 1 1 2 3 2 2 8 11 11 9 8 9 8 10 11 10 11 11 10 11 9 8 10 10 8 7 10 13 18 18 13 11 12 10 11 12
Height
3126 3126 3124 3122 3122 3121 3119 3118 3115 3113 3110 3105 3101 3099 3096 3094 3091 3088 3085 3082 3083 3085 3087 3089 3090 3091 3093 3095 3097 3099 3102 3104 3107 3109 3111 3112 3112 3113 3113 3112 3111 3110 3108 3107
3125 3122 3121 3120 3119 3118 3116 3114 3112 3110 3107 3103 3099 3096 3093 3091 3089 3087 3084 3082 3081 3082 3084 3085 3086 3087 3089 3091 3093 3095 3098 3101 3103 3105 3106 3108 3108 3108 3108 3107 3106 3105 3104 3102
3121 3121 3119 3118 3116 3115 3113 3112 3109 3107 3102 3098 3095 3092 3091 3089 3087 3085 3085 3083 3082 3081 3081 3082 3084 3085 3086 3088 3090 3093 3095 3097 3099 3100 3101 3102 3103 3103 3103 3103 3102 3100 3099 3097
3119 3117 3116 3115 3113 3112 3110 3108 3106 3103 3101 3098 3095 3093 3088 3087 3086 3084 3082 3081 3080 3079 3079 3080 3082 3083 3084 3085 3087 3090 3092 3094 3096 3097 3097 3097 3097 3097 3097 3096 3095 3094 3093 3091
3117 3115 3113 3112 3111 3109 3108 3105 3103 3099 3096 3095 3092 3093 3085 3085 3084 3082 3081 3080 3079 3079 3079 3078 3079 3080 3081 3082 3084 3086 3088 3089 3090 3091 3091 3092 3091 3091 3090 3090 3088 3087 3086 3084
3113 3111 3110 3109 3108 3106 3105 3103 3099 3095 3094 3093 3090 3091 3083 3083 3082 3081 3079 3078 3078 3078 3078 3077 3077 3078 3079 3080 3081 3083 3084 3085 3086 3086 3086 3085 3085 3084 3083 3083 3082 3081 3079 3078
3108 3107 3106 3106 3105 3104 3103 3101 3097 3098 3095 3093 3089 3088 3080 3079 3079 3078 3076 3075 3074 3074 3074 3075 3075 3076 3077 3077 3078 3078 3078 3078 3078 3079 3079 3079 3078 3077 3076 3075 3074 3073 3072 3070
3104 3104 3103 3102 3102 3101 3099 3100 3100 3104 3097 3090 3087 3080 3076 3076 3076 3075 3074 3073 3071 3070 3069 3071 3072 3072 3073 3073 3074 3074 3073 3072 3071 3072 3072 3072 3071 3070 3069 3068 3067 3065 3063 3062
3102 3100 3099 3098 3097 3098 3095 3095 3096 3094 3091 3091 3080 3075 3073 3071 3071 3070 3070 3069 3067 3066 3067 3068 3069 3069 3069 3069 3069 3069 3068 3067 3067 3066 3065 3064 3063 3063 3061 3060 3058 3056 3054 3053
3097 3096 3094 3093 3092 3092 3092 3092 3091 3091 3095 3089 3075 3070 3066 3066 3066 3067 3066 3065 3065 3064 3064 3064 3064 3065 3065 3064 3064 3063 3062 3060 3059 3058 3057 3057 3056 3055 3053 3051 3049 3046 3044 3042
3093 3092 3089 3089 3086 3086 3086 3084 3085 3086 3083 3080 3077 3064 3062 3062 3062 3062 3062 3061 3061 3060 3060 3059 3058 3057 3058 3056 3056 3055 3053 3051 3050 3049 3049 3047 3046 3044 3043 3041 3038 3035 3034 3031
3089 3086 3083 3083 3081 3080 3079 3078 3079 3079 3075 3072 3069 3058 3060 3060 3058 3057 3057 3056 3054 3054 3053 3054 3052 3049 3049 3048 3047 3046 3045 3044 3043 3041 3040 3038 3036 3033 3031 3029 3027 3025 3024 3023
3083 3080 3078 3075 3076 3074 3072 3072 3072 3071 3070 3065 3064 3056 3055 3055 3053 3053 3051 3049 3048 3046 3044 3044 3044 3043 3043 3042 3042 3041 3039 3037 3035 3033 3031 3028 3026 3024 3022 3020 3018 3015 3013 3011
3078 3073 3072 3068 3068 3069 3068 3068 3067 3066 3062 3057 3050 3049 3052 3051 3047 3046 3044 3042 3041 3039 3038 3038 3038 3037 3037 3036 3035 3033 3032 3030 3028 3025 3022 3019 3017 3014 3012 3009 3007 3004 3002 3000
3071 3063 3063 3060 3061 3060 3058 3057 3058 3054 3052 3049 3039 3043 3045 3042 3041 3038 3036 3035 3036 3035 3034 3033 3032 3030 3029 3028 3027 3025 3022 3020 3017 3015 3013 3011 3008 3006 3003 3000 2997 2994 2991 2988
3062 3055 3053 3047 3051 3050 3042 3044 3044 3041 3038 3035 3035 3035 3034 3033 3031 3030 3030 3030 3029 3030 3029 3026 3025 3024 3022 3020 3018 3016 3014 3012 3010 3007 3005 3003 3000 2997 2993 2989 2985 2982 2978 2974
3054 3051 3048 3035 3041 3038 3028 3028 3029 3029 3027 3027 3026 3027 3025 3024 3025 3025 3024 3023 3024 3024 3023 3020 3018 3017 3015 3013 3012 3010 3008 3005 3002 2999 2996 2993 2989 2986 2982 2978 2974 2970 2966 2962
3042 3043 3042 3034 3036 3026 3017 3018 3019 3021 3019 3019 3018 3019 3020 3019 3019 3018 3019 3019 3019 3017 3013 3013 3012 3010 3008 3006 3004 3002 3000 2997 2994 2991 2987 2983 2979 2975 2971 2966 2961 2956 2951 2946
3034 3035 3034 3032 3028 3019 3015 3014 3014 3015 3015 3015 3014 3014 3015 3015 3014 3015 3014 3012 3010 3009 3008 3006 3005 3004 3002 3000 2997 2995 2991 2987 2984 2981 2977 2973 2968 2964 2959 2953 2947 2941 2935 2930
3031 3029 3029 3026 3022 3015 3011 3010 3009 3011 3009 3011 3010 3010 3010 3010 3011 3010 3008 3007 3006 3004 3003 3002 3000 2997 2995 2992 2989 2986 2982 2979 2976 2972 2968 2963 2958 2952 2945 2938 2932 2926 2920 2915
3027 3025 3023 3018 3014 3008 3006 3008 3007 3009 3009 3004 3005 3005 3006 3007 3007 3005 3004 3002 3000 2998 2996 2994 2992 2990 2987 2984 2982 2978 2974 2970 2967 2963 2958 2952 2946 2939 2932 2926 2919 2913 2908 2902
3024 3022 3018 3015 3011 3008 3005 3004 3006 3003 3000 3001 3001 3001 3000 3001 3001 3000 2998 2996 2995 2992 2990 2988 2985 2982 2979 2976 2973 2970 2966 2962 2958 2953 2948 2942 2935 2927 2921 2914 2909 2904 2898 2894
3018 3017 3013 3014 3008 3005 3004 3002 2999 2995 2996 2995 2997 2998 2997 2997 2996 2995 2993 2991 2988 2985 2983 2981 2979 2976 2972 2968 2964 2961 2957 2953 2949 2944 2938 2931 2924 2917 2910 2904 2900 2895 2890 2885
3009 3009 3007 3004 3000 2998 2995 2993 2992 2991 2991 2991 2995 2994 2993 2993 2991 2989 2986 2983 2981 2978 2976 2973 2970 2967 2964 2960 2956 2952 2948 2944 2940 2935 2929 2921 2914 2908 2902 2897 2892 2887 2882 2878
3004 3001 2998 2996 2993 2991 2990 2986 2986 2989 2990 2990 2991 2990 2989 2987 2985 2982 2979 2976 2973 2970 2967 2964 2961 2958 2956 2952 2948 2943 2939 2935 2931 2926 2919 2912 2906 2900 2895 2891 2886 2881 2876 2870
2995 2993 2991 2987 2986 2983 2984 2982 2984 2985 2986 2988 2987 2986 2984 2981 2978 2975 2972 2968 2965 2962 2959 2957 2953 2950 2947 2944 2939 2935 2931 2926 2922 2917 2911 2904 2898 2893 2888 2883 2881 2877 2870 2865